Find Starlink 37394

NORAD ID: 100475 Int'l Des: 2026-196 Owner: SPXS Country: US Constellation: starlink operational

Aktuelle Ansicht

3D-Globus wird geladen...

About Starlink 37394

Starlink 37394 (NORAD 100475) is a starlink constellation satellite launched Aug 25, 2026 by SPXS of US. with a mass of 575.00 kg.

Nächste Überflüge

Passes for default location (London). Set your location on the main map for personalized predictions.

Höhenverlauf

Loading altitude history...

Zweizeiliger Elementsatz

1 A0475U 26196C 26259.24348363 -.00971529 00000-0 -11589-1 0 9997
2 A0475 53.1596 262.9662 0000460 276.0650 84.0313 15.63072204 4683
Epoch: 16. Sept. 2026 • Age: 105 hours

Aktueller Status

Höhe 402.6 km
Apogäum / Perigäum N/A
Geschwindigkeit 7.67 km/s
Subsatellitenpunkt 21.47°N, 40.49°E
Startdatum 25. Aug. 2026
Alter 26 days
Typ internet

Technische Details

Klassifizierung Payload
Masse 575.00 kg
Trockenmasse 530.00 kg
Länge 0.30 m
Spannweite 29.00 m
Form ? Box + pan
Hersteller SPXS
Bus-Typ Starlink V2MO
Phasenstatus In Orbit
Besitzer/Staat SPXS/US

Most Searched